FW8640 Weather Reports


time (UTC)temp
C
wind
direction
speed
KPH
gust
KPH
rain 1hr
cm
rain 24hr
cm
rain mn
cm
humidity
%
barometer
mb
20260510063019 20 0 4.8 9.7 0.00 0.00 0.00 70 1016.8
20260510062020 19 0 6.4 14.5 0.00 0.00 0.00 70 1017.0
20260510061018 19 0 4.8 12.9 0.00 0.00 0.00 70 1016.9
20260510060019 19 0 6.4 14.5 0.00 0.00 0.00 70 1017.0
20260510055018 20 0 4.8 12.9 0.00 0.00 0.00 70 1017.1
20260510054018 19 0 3.2 8.0 0.00 0.00 0.00 72 1017.0
20260510053040 18 0 1.6 8.0 0.00 0.00 0.00 74 1016.9
20260510052020 18 0 1.6 6.4 0.00 0.00 0.00 75 1016.7
20260510051020 17 0 1.6 6.4 0.00 0.00 0.00 76 1016.7
20260510050019 17 0.0 1.6 0.00 0.00 0.00 76 1016.6
20260510045020 17 0.0 1.6 0.00 0.00 0.00 75 1016.6
20260510044020 17 0.0 1.6 0.00 0.00 0.00 74 1016.7
20260510043018 17 0.0 3.2 0.00 0.00 0.00 74 1016.7
20260510042020 17 0.0 3.2 0.00 0.00 0.00 73 1016.8
20260510041020 17 0 4.8 6.4 0.00 0.00 0.00 73 1016.7
20260510040020 17 0 4.8 8.0 0.00 0.00 0.00 73 1016.5
20260510035018 17 0 6.4 9.7 0.00 0.00 0.00 73 1016.4
20260510034019 17 0 6.4 12.9 0.00 0.00 0.00 73 1016.3
20260510033020 17 0 6.4 8.0 0.00 0.00 0.00 74 1016.1
20260510032039 17 0 4.8 8.0 0.00 0.00 0.00 74 1016.0
20260510031018 17 0 4.8 8.0 0.00 0.00 0.00 74 1016.1
20260510030019 17 0 4.8 6.4 0.00 0.00 0.00 74 1016.1
20260510025018 17 0 6.4 9.7 0.00 0.00 0.00 74 1016.0
20260510024019 17 0 3.2 6.4 0.00 0.00 0.00 75 1016.0
20260510023041 17 0 1.6 4.8 0.00 0.00 0.00 75 1016.1
20260510022018 17 0 1.6 6.4 0.00 0.00 0.00 75 1016.0
20260510021041 17 0 3.2 6.4 0.00 0.00 0.00 75 1016.1
20260510020019 17 0 4.8 8.0 0.00 0.00 0.00 76 1016.1
20260510015019 17 0.0 1.6 0.00 0.00 0.00 76 1016.1
20260510014018 17 0 6.4 14.5 0.00 0.00 0.00 76 1016.0
20260510013017 17 0 6.4 12.9 0.00 0.00 0.00 77 1016.0
20260510012017 17 0 1.6 6.4 0.00 0.00 0.00 78 1016.1
20260510011019 17 0.0 0.0 0.00 0.00 0.00 79 1016.3
20260510010018 17 0 1.6 4.8 0.00 0.00 0.00 80 1016.3
20260510005017 17 0 4.8 8.0 0.00 0.00 0.00 81 1016.3
20260510004038 17 0 6.4 9.7 0.00 0.00 0.00 83 1016.5
20260510003018 16 0 6.4 9.7 0.00 0.00 0.00 84 1016.5
20260510002017 16 0 6.4 9.7 0.00 0.00 0.00 85 1016.5
20260510001017 16 0 3.2 6.4 0.00 0.00 0.00 85 1016.6
20260510000020 16 0 1.6 4.8 0.00 0.00 0.00 85 1016.5
20260509235017 17 0.0 3.2 0.00 0.00 0.00 85 1016.5
20260509234017 17 0.0 0.0 0.00 0.00 0.00 85 1016.7
20260509233018 17 0.0 0.0 0.00 0.00 0.00 85 1016.6
20260509232017 17 0.0 0.0 0.00 0.00 0.00 85 1016.7
20260509231018 17 0.0 0.0 0.00 0.00 0.00 85 1016.9
20260509230017 17 0.0 0.0 0.00 0.00 0.00 85 1016.8
20260509225017 18 0.0 0.0 0.00 0.00 0.00 85 1016.7
20260509224123 18 0.0 0.0 0.00 0.00 0.00 85 1016.8
20260509223017 18 0.0 0.0 0.00 0.00 0.00 85 1016.8
20260509222019 18 0.0 0.0 0.00 0.00 0.00 86 1016.8
20260509221020 18 0.0 0.0 0.00 0.00 0.00 86 1016.8
20260509220020 18 0.0 0.0 0.00 0.00 0.00 86 1016.8
20260509215042 18 0.0 0.0 0.00 0.00 0.00 86 1017.0
20260509214019 18 0.0 0.0 0.00 0.00 0.00 86 1017.1
20260509213022 18 0.0 0.0 0.00 0.00 0.00 86 1017.0
20260509212021 18 0.0 0.0 0.00 0.00 0.00 86 1017.0
20260509211019 18 0.0 0.0 0.00 0.00 0.00 85 1017.1
20260509210042 18 0.0 0.0 0.00 0.00 0.00 85 1017.0
20260509205020 18 0.0 0.0 0.00 0.00 0.00 84 1016.8
20260509204018 18 0.0 0.0 0.00 0.00 0.00 84 1016.7
20260509203039 18 0.0 0.0 0.00 0.00 0.00 84 1016.8
20260509202020 18 0 1.6 4.8 0.00 0.00 0.00 83 1016.6
20260509201018 18 0.0 0.0 0.00 0.00 0.00 81 1016.6
20260509200018 18 0.0 1.6 0.00 0.00 0.00 80 1016.5
20260509195018 18 0.0 1.6 0.00 0.00 0.00 80 1016.4
20260509194041 18 0.0 1.6 0.00 0.00 0.00 80 1016.4
20260509193018 19 0.0 0.0 0.00 0.00 0.00 79 1016.5
20260509192039 19 0.0 0.0 0.00 0.00 0.00 80 1016.4
20260509191019 19 0.0 0.0 0.00 0.00 0.00 79 1016.3
20260509190039 19 0.0 0.0 0.00 0.00 0.00 79 1016.4
20260509185018 20 0.0 0.0 0.00 0.00 0.00 79 1016.4
20260509184041 20 0.0 0.0 0.00 0.00 0.00 79 1016.2
20260509183019 20 0.0 0.0 0.00 0.00 0.00 78 1016.1
20260509182018 20 0.0 0.0 0.00 0.00 0.00 78 1016.1
20260509181041 20 0 1.6 4.8 0.00 0.00 0.00 78 1016.0
20260509180018 20 0 1.6 4.8 0.00 0.00 0.00 78 1015.9
20260509175018 20 0.0 0.0 0.00 0.00 0.00 78 1015.8
20260509174041 20 0.0 1.6 0.00 0.00 0.00 79 1015.4
20260509173018 20 0.0 0.0 0.00 0.00 0.00 79 1015.2
20260509172019 20 0.0 3.2 0.00 0.00 0.00 79 1015.3
20260509171017 20 0.0 3.2 0.00 0.00 0.00 79 1015.3
20260509170017 20 0.0 1.6 0.00 0.00 0.00 79 1015.3
20260509165040 20 0.0 1.6 0.00 0.00 0.00 78 1015.4
20260509164018 21 0.0 3.2 0.00 0.00 0.00 78 1015.3
20260509163018 21 0 1.6 4.8 0.00 0.00 0.00 79 1015.3
20260509162019 20 0 1.6 6.4 0.00 0.00 0.00 80 1015.2
20260509161017 20 0 1.6 3.2 0.00 0.00 0.00 80 1015.3
20260509160017 20 0.0 4.8 0.00 0.00 0.00 80 1015.4
20260509155018 20 0 1.6 6.4 0.00 0.00 0.00 80 1015.2
20260509154018 21 0 3.2 8.0 0.00 0.00 0.00 81 1015.2
20260509153019 21 0 1.6 3.2 0.00 0.00 0.00 80 1015.2
20260509152042 21 0 1.6 8.0 0.00 0.03 0.00 78 1015.0
20260509151017 21 0 4.8 9.7 0.00 0.03 0.00 78 1015.0
20260509150018 21 0 3.2 8.0 0.00 0.03 0.00 77 1014.9
20260509145019 21 0 6.4 19.3 0.00 0.03 0.00 76 1015.0
20260509144039 21 0 4.8 12.9 0.00 0.03 0.00 76 1014.8
20260509143017 22 0 3.2 8.0 0.00 0.03 0.00 74 1014.9
20260509142019 22 0 4.8 9.7 0.00 0.03 0.00 69 1014.9
20260509141017 22 0 3.2 8.0 0.00 0.03 0.00 72 1014.9
20260509140017 21 0 1.6 6.4 0.00 0.03 0.00 74 1015.0
20260509135018 21 0 1.6 3.2 0.00 0.03 0.00 74 1015.1
20260509134059 21 0 1.6 6.4 0.00 0.03 0.00 74 1015.1
20260509133017 21 0 1.6 8.0 0.00 0.03 0.00 73 1015.2
20260509132017 21 0 4.8 16.1 0.00 0.03 0.00 72 1015.2
20260509131019 21 0 3.2 8.0 0.00 0.03 0.00 70 1015.1
20260509130040 21 0 3.2 12.9 0.00 0.03 0.00 70 1015.2
20260509125019 21 0 3.2 6.4 0.00 0.03 0.00 70 1015.1
20260509124019 21 0 3.2 9.7 0.00 0.03 0.00 70 1015.1
20260509123019 22 0 3.2 9.7 0.00 0.03 0.00 68 1015.2
20260509122019 22 0 3.2 9.7 0.00 0.03 0.00 65 1015.1
20260509121020 22 0 3.2 8.0 0.00 0.05 0.00 65 1015.2
20260509120040 22 0 4.8 14.5 0.00 0.05 0.00 65 1015.2
20260509115019 22 0 3.2 6.4 0.00 0.05 0.00 65 1015.1
20260509114019 22 0 3.2 6.4 0.00 0.05 0.00 68 1015.3
20260509113020 21 0 3.2 12.9 0.00 0.13 0.00 68 1015.2
20260509112020 21 0 3.2 8.0 0.00 0.15 0.00 69 1015.3
20260509111020 21 0 3.2 6.4 0.00 0.20 0.00 68 1015.4
20260509110022 20 0 3.2 9.7 0.00 0.23 0.00 70 1015.6
20260509105019 20 0 3.2 8.0 0.00 0.23 0.00 72 1015.6
20260509104019 20 0 3.2 6.4 0.00 0.25 0.00 72 1015.6
20260509103019 20 0 3.2 14.5 0.00 0.28 0.00 71 1015.7
20260509102040 20 0 3.2 12.9 0.00 0.28 0.00 71 1015.9
20260509101020 20 0 1.6 8.0 0.00 0.30 0.00 72 1016.0
20260509100020 20 0 3.2 6.4 0.00 0.33 0.00 72 1015.9
20260509095041 20 0 3.2 6.4 0.00 0.33 0.00 72 1015.9
20260509094019 20 0 4.8 9.7 0.00 0.36 0.00 70 1016.0
20260509093019 21 0.0 8.0 0.00 0.38 0.00 70 1016.0
20260509092020 20 0 3.2 6.4 0.00 0.38 0.00 72 1016.0
20260509091042 20 0 3.2 8.0 0.00 0.38 0.00 74 1016.2
20260509090018 19 0 3.2 8.0 0.00 0.38 0.00 75 1016.1
20260509085018 18 0 1.6 6.4 0.00 0.38 0.00 76 1016.3
20260509084019 18 0 4.8 9.7 0.00 0.38 0.00 78 1016.5
20260509083019 18 0 3.2 6.4 0.00 0.38 0.00 80 1016.5
20260509082018 18 0 1.6 4.8 0.00 0.38 0.00 82 1016.4
20260509081020 18 0.0 1.6 0.00 0.38 0.00 84 1016.6
20260509080019 17 0.0 8.0 0.00 0.38 0.00 86 1016.7
20260509075018 17 0 1.6 4.8 0.00 0.38 0.00 87 1016.6
20260509074019 17 0.0 1.6 0.00 0.38 0.00 88 1016.5
20260509073018 16 0 1.6 3.2 0.00 0.38 0.00 88 1016.5
20260509072041 16 0 1.6 4.8 0.00 0.38 0.00 89 1016.6
20260509071019 16 0.0 3.2 0.00 0.38 0.00 89 1016.6
20260509070020 16 0 1.6 6.4 0.00 0.38 0.00 89 1016.7
20260509065018 16 0 1.6 4.8 0.00 0.38 0.00 89 1016.6
20260509064018 16 0 3.2 4.8 0.00 0.38 0.00 89 1016.5